Location: Hokitika
(42.7170°S, 170.9670°E)
Time: 20:54:35
(UTC+12:00)

ISS - Pass Details

Date: 20 May 2021
Orbit: 417 x 422 km, 51.6° (Epoch: 21 June)

Event Time Altitude Azimuth Distance (km) Brightness Sun altitude
Rises 07:12:40 0° 327° (NNW) 2,376 -0.1 -6.4°
Reaches altitude 10° 07:14:52 10° 336° (NNW) 1,517 -0.9 -6.0°
Maximum altitude 07:17:59 34° 42° (NE) 728 -1.8 -5.5°
Drops below altitude 10° 07:21:09 10° 108° (ESE) 1,532 -0.1 -5.0°
Sets 07:23:22 0° 117° (ESE) 2,403 0.7 -4.6°
